Location: Nebula Knoll Observatory
(43.6666°N, 71.0000°W)
Time: 09:47:39
(UTC-04:00)

Daily predictions for brighter satellites

Satellite Brightness Start Highest point End
(mag) Time Altitude Azimuth Time Altitude Azimuth Time Altitude Azimuth
CZ-4C R/B 3.8 18:42:16 10° WSW 18:47:17 35° NW 18:52:55 10° NNE
Meteor 1-22 Rocket 4.1 18:42:10 10° S 18:47:29 85° E 18:52:48 10° NNE
Meteor 1-24 Rocket 3.9 18:43:05 10° NNW 18:48:41 77° W 18:54:03 10° S
Cosmos 1674 4.0 18:53:12 10° NNE 18:56:12 21° ENE 18:59:11 10° ESE
Cosmos 1953 2.6 18:52:43 10° SSE 18:56:29 42° E 19:00:16 10° NNE
Helios 1B rocket 3.6 18:55:51 10° NE 18:59:05 22° E 19:02:18 10° SSE
Cosmos 1743 Rocket 4.2 18:55:35 10° N 18:59:37 33° ENE 19:03:37 10° SE
Cosmos 2333 Rocket 4.4 18:55:26 10° WSW 19:00:12 26° NW 19:05:00 10° N
ATLAS 5 CENTAUR R/B 2.0 18:55:41 10° SW 19:00:29 81° NW 19:05:45 10° NE
Cosmos 1470 4.0 19:00:50 10° SE 19:03:42 20° E 19:06:34 10° NE
Resurs 1-3 4.5 19:02:28 10° SE 19:06:14 29° ENE 19:10:01 10° N
Cosmos 1544 3.5 19:08:32 10° SSE 19:12:05 42° E 19:15:39 10° NNE
SAR-Lupe-4 3.5 19:09:01 10° SSE 19:12:35 89° E 19:16:12 10° NNW
Resurs 01 Rocket 1.9 19:12:19 10° SE 19:16:34 46° ENE 19:20:50 10° N
METEOR-M 4.2 19:11:50 10° SSE 19:17:05 60° ENE 19:22:21 10° N
COSMO-SKYMED 1 3.4 19:15:05 10° N 19:19:21 56° WNW 19:23:35 10° SSW
SL-8 R/B 3.7 19:17:14 10° SW 19:22:01 74° SSE 19:26:10 14° ENE
NOSS 3-2 (A) 4.4 19:16:28 10° WSW 19:22:28 51° NW 19:29:03 10° NNE
SJ-6B 3.0 19:19:53 10° S 19:23:54 81° WSW 19:28:02 10° NNW
ALOS 3.0 19:20:34 10° SE 19:24:44 33° ENE 19:28:56 10° N
FengYun 1-2 T 4.4 19:19:40 10° SE 19:24:56 49° ENE 19:30:12 10° N
Cosmos 1076 Rocket 4.5 19:20:58 10° NNW 19:25:11 52° W 19:29:25 10° S
Nadezhda 4 Rocket 4.0 19:20:16 10° N 19:26:31 66° E 19:32:40 10° SSE
Cosmos 1484 Rocket 4.5 19:23:18 10° SSW 19:26:54 37° W 19:30:36 10° NNW
ASTEX 1 3.9 19:25:56 10° NNE 19:30:26 35° E 19:34:54 10° SSE
ATLAS CENTAUR R/B 4.0 19:26:25 10° SW 19:31:48 82° NW 19:49:55 10° NE
Cosmos 2151 3.9 19:29:08 10° NNE 19:32:47 28° ENE 19:34:34 21° ESE
GP-B 4.0 19:32:18 10° NNE 19:36:05 27° E 19:37:51 21° ESE
SL-16 R/B 4.0 19:31:03 10° WSW 19:36:09 33° NW 19:41:17 10° N
Meteor 1-29 3.3 19:33:15 10° NNE 19:36:38 43° E 19:39:57 10° S
Cosmos-2242 3.3 19:33:04 10° SSW 19:37:25 73° W 19:41:51 10° N
Cosmos 1092 Rocket 4.0 19:31:21 10° N 19:37:29 59° E 19:43:31 10° SSE
Cosmos 839 Rocket 4.4 19:30:03 10° NNW 19:37:50 62° NE 19:43:03 16° SE
FENGYUN 3A 3.9 19:32:54 10° SE 19:38:02 47° ENE 19:43:12 10° N
Cosmos 1758 4.2 19:37:51 10° SSW 19:41:52 54° W 19:45:55 10° N
Cosmos 2221 4.2 19:45:08 17° NE 19:45:08 17° NE 19:46:40 10° NE
CENTAUR R/B 2.5 19:38:59 10° SSW 19:44:55 61° ESE 19:51:37 10° NE
ISS -3.2 19:43:17 10° WSW 19:46:32 73° NNW 19:48:04 28° NE
Cosmos 2026 Rocket 4.4 19:41:34 10° N 19:47:16 40° ENE 19:51:17 19° SE
Cosmos 1655 Rocket 4.4 19:45:47 10° N 19:51:35 39° ENE 19:54:54 23° SE
Abrixas 2.9 19:49:22 10° W 19:52:20 56° NNW 19:53:12 37° NE
Meteor 1-28 Rocket 4.4 19:48:48 10° N 19:52:21 44° WNW 19:55:54 10° SW
GPS 2-04 Rocket1 4.0 19:50:09 10° SW 19:52:55 22° S 19:53:27 21° SSE
Cosmos 2251 Rocket 4.0 19:49:00 10° SSE 19:53:44 36° ESE 19:58:31 10° NE
Cosmos 1634 Rocket 4.0 19:49:27 10° SSE 19:55:31 57° E 20:01:34 10° NNE
CZ-2D R/B 3.3 19:57:19 37° SE 19:58:34 54° ENE 20:02:23 10° N
Cosmos 1328 3.8 19:56:41 10° N 20:00:37 56° E 20:01:42 41° SE
Cosmos 1943 Rocket 2.6 19:55:44 10° NNW 20:01:05 42° ENE 20:02:50 33° E
Cosmos 1331 Rocket 4.2 19:56:11 10° N 20:01:22 50° ENE 20:03:18 34° ESE
SL-14 R/B 4.1 19:58:26 10° N 20:01:44 34° ENE 20:01:44 34° ENE
ERBS 2.9 20:02:31 10° NW 20:05:53 43° NE 20:05:53 43° NE
H-2A R/B 2.6 20:06:03 45° SE 20:07:05 68° ENE 20:10:56 10° N
Cosmos 1500 Rocket 4.0 20:03:10 10° NNW 20:07:36 65° W 20:12:00 10° S
Cosmos 2195 Rocket 4.4 20:03:31 10° N 20:09:51 68° E 20:15:09 15° SSE
Cosmos 1842 Rocket 3.9 20:06:15 10° SSW 20:10:33 67° W 20:14:55 10° N
Helios 1A 3.8 20:06:34 10° S 20:10:39 51° W 20:14:48 10° NNW
Cosmos 2369 Rocket 2.3 20:06:51 10° NNW 20:12:31 74° WSW 20:16:54 17° SSE
Cosmos 1943 3.2 20:09:45 10° SSW 20:15:23 85° WNW 20:21:03 10° NNE
Cosmos 1302 Rocket 4.5 20:10:53 10° N 20:15:46 39° ENE 20:16:00 39° ENE
Cosmos 2263 4.3 20:20:53 10° NNW 20:26:41 79° WSW 20:29:26 32° SSE
Cosmos 1733 4.2 20:23:24 10° SSW 20:27:09 47° WNW 20:30:54 10° N
Envisat 3.8 20:28:38 35° NE 20:28:38 35° NE 20:32:29 10° N
Cosmos 158 Rocket 4.2 20:23:31 10° SSW 20:28:21 64° WNW 20:33:14 10° NNE
USA 215 3.1 20:25:37 23° NE 20:29:58 75° SE 20:36:30 10° SW
Gbstr 26 Del rocket 3.4 20:26:40 10° WSW 20:31:14 75° NNW 20:32:55 44° NE
Helios 1B rocket 4.2 20:30:46 10° N 20:34:27 32° WNW 20:38:07 10° SW
SL-24 R/B - RUBIN 2 4.5 20:30:07 10° NW 20:36:48 80° WSW 20:38:57 44° SSE
ATLAS 5 CENTAUR R/B 4.4 20:42:33 10° WNW 20:46:05 19° NNW 20:49:51 10° NNE
Sich 1 4.5 20:46:23 10° N 20:48:36 29° N 20:48:36 29° N
Resurs 01 Rocket 4.3 20:50:16 10° SW 20:53:17 18° W 20:56:18 10° NW
ERS-1 Rocket 3.3 20:56:03 55° N 20:56:03 55° N 21:00:03 10° N
Cosmos 2058 3.9 20:52:21 10° NNW 20:55:45 46° WNW 20:55:45 46° WNW
UNK 4.3 20:42:04 10° WNW 21:01:03 73° NNE 21:02:05 62° ENE
Cosmos 2180 Rocket 4.3 21:00:27 72° S 21:01:10 88° E 21:07:20 10° N
Cosmos 1656 Rocket 4.1 20:55:57 10° NNW 21:00:09 48° NNE 21:00:09 48° NNE
ALOS 4.2 20:58:30 11° SSW 21:02:12 27° W 21:06:09 10° NW
Meteor 2-1 Rocket 4.4 20:58:08 13° SSW 21:03:16 71° WNW 21:09:11 10° N
Cosmos 2279 Rocket 4.3 21:09:23 15° SSW 21:14:35 62° W 21:20:45 10° N
H-2A R/B 4.4 21:20:19 18° N 21:20:19 18° N 21:21:31 10° N
Cosmos 2221 4.4 21:21:56 28° NW 21:21:56 28° NW 21:24:39 10° N
ISS 0.3 21:20:45 10° WNW 21:20:45 10° WNW 21:20:45 10° WNW
Cosmos 2266 Rocket 4.5 21:24:40 10° N 21:29:24 53° N 21:29:24 53° N
CENTAUR R/B 4.0 21:30:20 10° W 21:36:02 34° NW 21:42:25 10° NNE
Cosmos 1943 Rocket 3.7 21:39:51 10° NW 21:44:23 29° W 21:44:23 29° W
USA 215 4.2 22:13:01 43° NNW 22:13:01 43° NNW 22:18:48 10° W
